TimeCST,TemperatureF,Dew PointF,Humidity,Sea Level PressureIn,VisibilityMPH,Wind Direction,Wind SpeedMPH,Gust SpeedMPH,PrecipitationIn,Events,Conditions,WindDirDegrees,DateUTC
12:56 AM,36.0,23.0,59,29.81,-9999.0,ESE,6.9,-,N/A,,Unknown,110,2014-01-12 06:56:00
1:56 AM,37.0,23.0,57,29.77,-9999.0,ESE,8.1,-,N/A,,Unknown,120,2014-01-12 07:56:00
2:56 AM,37.0,23.0,57,29.73,-9999.0,SE,11.5,-,N/A,,Unknown,140,2014-01-12 08:56:00
3:56 AM,39.9,21.9,49,29.70,-9999.0,South,11.5,-,N/A,,Unknown,170,2014-01-12 09:56:00
4:56 AM,39.0,21.9,50,29.66,-9999.0,SSE,9.2,-,N/A,,Unknown,160,2014-01-12 10:56:00
5:56 AM,41.0,23.0,49,29.63,-9999.0,SSE,13.8,-,N/A,,Unknown,160,2014-01-12 11:56:00
6:56 AM,41.0,23.0,49,29.62,-9999.0,South,10.4,-,N/A,,Unknown,180,2014-01-12 12:56:00
7:56 AM,39.9,23.0,51,29.61,-9999.0,SSE,5.8,-,N/A,,Unknown,160,2014-01-12 13:56:00
8:56 AM,43.0,24.1,47,29.62,-9999.0,Variable,3.5,-,N/A,,Unknown,0,2014-01-12 14:56:00
9:56 AM,46.9,25.0,42,29.61,-9999.0,South,11.5,-,N/A,,Unknown,180,2014-01-12 15:56:00
10:56 AM,55.0,25.0,31,29.57,-9999.0,SSW,15.0,-,N/A,,Unknown,210,2014-01-12 16:56:00
11:56 AM,60.1,25.0,26,29.54,-9999.0,SW,13.8,-,N/A,,Unknown,230,2014-01-12 17:56:00
12:56 PM,64.0,26.1,24,29.50,-9999.0,WSW,13.8,21.9,N/A,,Unknown,250,2014-01-12 18:56:00
1:56 PM,66.0,26.1,22,29.48,-9999.0,WSW,15.0,-,N/A,,Unknown,240,2014-01-12 19:56:00
2:56 PM,68.0,27.0,21,29.46,-9999.0,SSW,17.3,23.0,N/A,,Unknown,210,2014-01-12 20:56:00
3:56 PM,68.0,27.0,21,29.48,-9999.0,West,15.0,21.9,N/A,,Unknown,260,2014-01-12 21:56:00
4:56 PM,63.0,26.1,25,29.53,-9999.0,WNW,12.7,21.9,N/A,,Unknown,300,2014-01-12 22:56:00
5:56 PM,55.0,28.9,37,29.57,-9999.0,NW,15.0,23.0,N/A,,Unknown,320,2014-01-12 23:56:00
6:56 PM,50.0,30.0,46,29.64,-9999.0,NW,11.5,-,N/A,,Unknown,320,2014-01-13 00:56:00
7:56 PM,51.1,30.9,46,29.68,-9999.0,North,18.4,27.6,N/A,,Unknown,350,2014-01-13 01:56:00
8:56 PM,48.9,30.9,50,29.73,-9999.0,NNW,16.1,23.0,N/A,,Unknown,340,2014-01-13 02:56:00
9:56 PM,48.0,28.0,46,29.74,-9999.0,NNW,16.1,26.5,N/A,,Unknown,340,2014-01-13 03:56:00
10:56 PM,48.0,26.1,42,29.75,-9999.0,NNW,15.0,-,N/A,,Unknown,340,2014-01-13 04:56:00
11:56 PM,44.1,27.0,51,29.79,-9999.0,NW,11.5,-,N/A,,Unknown,320,2014-01-13 05:56:00